Home > Weather > Middlesbrough > Past weeks

Flag for United Kingdom Weather for the Past 2 Weeks in Middlesbrough, England, United Kingdom

Now
50 °F

Passing clouds.


Feels Like: 45 °F
Forecast: 44 / 54 °F
Wind: 15 mph from West

Location: Tees-Side

Current Time: May 2, 2016 at 8:42:35 PM

Latest Report: May 2, 2016 at 8:20 PM


Visibility: N/A

Pressure: 29.95 "Hg

Humidity: 62%

Dew Point: 37 °F

Location of MiddlesbroughLocation

Historic Weather in Middlesbrough — Graph

°F

Middlesbrough Temperature Yesterday

Maximum temperature yesterday: 52 °F (at 1:50 PM)
Minimum temperature yesterday: 41 °F (at 6:20 AM)
Average temperature yesterday: 48 °F

High & Low Weather Summary for the Past Weeks

 TemperatureHumidityPressure
High64 °F (Apr 21, 3:20 PM)94% (May 1, 7:20 PM)30.48 "Hg (May 1, 7:20 PM)
Low28 °F (Apr 28, 5:50 AM)36% (Apr 21, 1:50 PM)29.50 "Hg (Apr 29, 5:50 AM)
Average46 °F68%30.04 "Hg
* Reported Apr 17 7:20 PM — May 2 7:20 PM, Middlesbrough, Weather by CustomWeather, © 2016

Note: Actual official high and low records may vary slightly from our data, if they occured in-between our weather recording intervals... More about our weather records

Advertising

Middlesbrough Weather History for the Previous 24 Hours

Scroll right to see more
 ConditionsComfort  
Time TempWeatherWind HumidityBarometerVisibility
7:20 PM
Mon, May 2
54 °FPassing clouds.21 mph51%29.92 "HgN/A
6:50 PM55 °FPassing clouds.17 mph47%29.92 "HgN/A
6:20 PM54 °FPassing clouds.17 mph54%29.92 "HgN/A
5:50 PM54 °FScattered showers. Passing clouds.16 mph58%29.92 "HgN/A
5:20 PM54 °FRain showers. Passing clouds.16 mph63%29.89 "HgN/A
4:50 PM57 °FPassing clouds.20 mph55%29.89 "HgN/A
4:20 PM54 °FSprinkles. Scattered clouds.16 mph63%29.89 "Hg6 mi
3:50 PM59 °FPassing clouds.20 mph48%29.89 "HgN/A
3:20 PM57 °FPassing clouds.20 mph48%29.89 "HgN/A
2:50 PM59 °FPassing clouds.23 mph45%29.89 "HgN/A
2:20 PM57 °FPassing clouds.21 mph55%29.89 "HgN/A
1:50 PM57 °FPassing clouds.20 mph59%29.89 "HgN/A
1:20 PM54 °FPassing clouds.20 mph67%29.89 "HgN/A
12:50 PM54 °FLight rain. Scattered clouds.18 mph77%29.86 "HgN/A
12:20 PM54 °FPassing clouds.21 mph77%29.86 "HgN/A
11:50 AM54 °FScattered clouds.17 mph88%29.86 "Hg5 mi
11:20 AM55 °FRain. Partly sunny.24 mph82%29.83 "Hg2 mi
10:50 AM55 °FSprinkles. Scattered clouds.21 mph82%29.86 "HgN/A
10:20 AM55 °FPartly sunny.21 mph77%29.86 "HgN/A
9:50 AM55 °FScattered clouds.23 mph77%29.86 "HgN/A
9:20 AM55 °FScattered clouds.23 mph77%29.86 "HgN/A
8:50 AM55 °FPassing clouds.26 mph77%29.83 "HgN/A
8:20 AM54 °FPartly sunny.18 mph82%29.86 "HgN/A
7:20 AM52 °FPassing clouds.20 mph88%29.89 "HgN/A
6:20 AM52 °FPassing clouds.14 mph88%29.92 "HgN/A
5:50 AM52 °FPassing clouds.14 mph88%29.92 "HgN/A
9:50 PM
Sun, May 1
52 °FPassing clouds.12 mph88%30.09 "HgN/A
9:20 PM50 °FPartly sunny.16 mph94%30.09 "HgN/A
8:50 PM50 °FPartly sunny.17 mph94%30.09 "HgN/A
8:20 PM50 °FLight rain. Partly sunny.17 mph94%30.09 "HgN/A
Weather by CustomWeather, © 2016

See weather overviewHow to use our weather pages